Location: Luxembourg
(49.6000°N, 6.1500°W)
Time: 09:45:50
(UTC+01:00)

ISS - Visible Passes

Search period start: 22 February 2018 00:00
Search period end: 04 March 2018 00:00
Orbit: 403 x 407 km, 51.6° (Epoch: 22 February)

Date Brightness Start Highest point End Pass type
(mag) Time Alt. Az. Time Alt. Az. Time Alt. Az.
27 Feb -1.0 07:06:38 10° S 07:08:37 15° SE 07:10:36 10° E visible
01 Mar -2.0 06:57:23 10° SSW 07:00:15 28° SE 07:03:06 10° E visible
02 Mar -1.5 06:06:55 15° SSE 06:08:08 18° SE 06:10:27 10° E visible
03 Mar -0.6 05:16:56 10° ESE 05:16:56 10° ESE 05:16:58 10° ESE visible
03 Mar -3.2 06:49:35 16° SW 06:51:57 50° SSE 06:55:09 10° ENE visible
